Regional Weather Roundup
Issued by NWS Sterling, VA

Home | Current Version | Previous Version | Text Only | Print | Product List | Glossary Off
Versions: 1 2 3 4 5 6 7 8 9 10 11 12 13 14 15 16 17 18 19 20 21 22 23 24 25 26 27 28 29 30 31 32 33 34 35 36 37 38 39 40 41 42 43 44 45 46 47 48 49 50

000
ASUS41 KLWX 310610
RWRLWX

REGIONAL WEATHER ROUNDUP
NATIONAL WEATHER SERVICE BALTIMORE MD/WASHINGTON DC
100 AM EST SAT JAN 31 2015

Note: "FAIR" indicates few or no clouds below 12,000 feet
with no significant weather and/or obstructions to visibility.
 TC=TEMPERATURE CELSIUS

 * =Non NWS site. Station does not report precipitation (e.g. rain,
    snow, etc.), thunder, or fog.

DCZ001-MDZ009-015-VAZ040>042-051-053>054-310700-
WASHINGTON METRO

CITY           SKY/WX    TMP DP  RH WIND       PRES   REMARKS
WASHINGTON NAT CLEAR     23   3  42 NW16G29   30.28S WCI  10
DULLES         CLEAR     18   3  52 NW15G24   30.28S WCI   4
ANDREWS AFB    CLEAR     20   4  49 NW18G30   30.24R WCI   5
FT BELVOIR     CLEAR     20   3  46 NW17G28   30.29S WCI   6
QUANTICO       CLEAR     22   3  44 N14G26    30.31R WCI   9
COLLEGE PARK*  CLEAR     21   7  53 NW13G22   30.26S WCI   9
LEESBURG*      CLEAR     19   9  63 NW14G23   30.30R WCI   6
MANASSAS*      CLEAR     19   7  58 NW16G32   30.29S WCI   5
GAITHERSBURG*  CLEAR     18   3  53 NW20G29   30.28R WCI   1

$$

MDZ006>007-011-014-310700-
BALTIMORE METRO

CITY           SKY/WX    TMP DP  RH WIND       PRES   REMARKS
BWI AIRPORT    CLEAR     19   1  45 NW15G21   30.24R WCI   5
MD SCIENCE CTR   N/A     20   0  41 MISG      30.25R
MARTIN STATE   CLEAR     21   5  49 W16G22    30.25R WCI   7
ANNAPOLIS      CLEAR     22   6  50 NW17G26   30.23R WCI   8
FORT MEADE*    CLEAR     19   5  53 NW22G30   30.27R WCI   3

$$

MDZ012-015-019>023-310700-
MARYLAND EASTERN SHORE

CITY           SKY/WX    TMP DP  RH WIND       PRES   REMARKS
OCEAN CITY     CLEAR     23   7  50 NW20G36   30.14S WCI   8
SALISBURY      CLEAR     25   7  46 NW17G25   30.17S WCI  12
BAY BRIDGE AP*   N/A     23   5  46 NW16G28   30.23S WCI  10
CAMBRIDGE*     CLEAR     27   5  39 NW22G30   30.20S WCI  12
EASTON*        CLEAR     23   7  50 NW24G31   30.24S WCI   7

$$

MDZ017>025-310700-
SOUTHERN MARYLAND

CITY           SKY/WX    TMP DP  RH WIND       PRES   REMARKS
PATUXENT RIVER CLEAR     22   5  48 NW20G28   30.23R WCI   7
ST INIGOES     CLEAR     23   4  44 NW14G26   30.24R WCI  11
LEONARDTOWN*   CLEAR     21   3  45 W12G20    30.25S WCI   9

$$

MDZ003>005-310700-
NORTH CENTRAL MARYLAND

CITY           SKY/WX    TMP DP  RH WIND       PRES   REMARKS
FREDERICK*     PTCLDY    21   3  45 NW9G16    30.31R WCI  11
HAGERSTOWN APT PTCLDY    17   4  56 NW10      30.27R WCI   5
WESTMINSTER*   PTCLDY    16   1  53 NW14G20   30.20S WCI   1

$$

MDZ501>502-310700-
WESTERN MARYLAND

CITY           SKY/WX    TMP DP  RH WIND       PRES   REMARKS
OAKLAND*       CLOUDY     5 N/A N/A W9        30.17S WCI  -9
CUMBERLAND*    PTCLDY    18   3  53 NW10G17   30.37F WCI   6

$$

VAZ025>031-310700-
SHENANDOAH VALLEY

CITY           SKY/WX    TMP DP  RH WIND       PRES   REMARKS
WINCHESTER*    MOCLDY    19   3  49 NW8       30.29S WCI   9
FRONT ROYAL*   FAIR      19   5  53 NE7       30.27F
LURAY*         FAIR      23   9  54 W6        30.26S
NEW MARKET*    FAIR      20   3  47 N6        30.27S
STAUNTON*      CLEAR     19   6  55 NW3       30.26S
WAYNESBORO*    FAIR      19   3  49 NW7       30.22F

$$

WVZ021-048>050-054>055-310700-
EASTERN WEST VIRGINIA PANHANDLE

CITY           SKY/WX    TMP DP  RH WIND       PRES   REMARKS
MARTINSBURG    CLEAR     18   3  52 NW22G30   30.30S WCI   1
PETERSBURG*    CLEAR     20   3  47 N12       30.32F WCI   7

$$

VAZ036>039-050-310700-
CENTRAL FOOTHILLS

CITY           SKY/WX    TMP DP  RH WIND       PRES   REMARKS
CHARLOTTESVILL CLEAR     24   3  40 NW12G21   30.25F WCI  13
CULPEPER*      CLEAR     21   7  53 N6        30.28S
ORANGE*        CLEAR     21  10  63 CALM      30.28F
GORDONSVILLE*  FAIR      20   7  56 CALM      30.26S
WARRENTON*     FAIR      22  11  62 NW14G26   30.27S WCI  10

$$

VAZ055>057-310700-
NORTH AND CENTRAL PIEDMONT

CITY           SKY/WX    TMP DP  RH WIND       PRES   REMARKS
FREDERICKSBRG* CLEAR     24   7  49 NW10G21   30.29R WCI  13
STAFFORD*      CLEAR     20   4  48 CALM      30.33S

$$

NCZ024-NYZ072-PAZ021-071-VAZ022-071-310700-
OTHER REGIONAL OBSERVATIONS

CITY           SKY/WX    TMP DP  RH WIND       PRES   REMARKS
NEW YORK CITY  CLEAR     18   1  47 NW20G39   30.07R WCI   2
PHILADELPHIA   CLEAR     19   0  43 NW23G31   30.16S WCI   2
PITTSBURGH     PTCLDY     8   3  80 W5        30.37S
ROANOKE        CLEAR     24   5  44 NW7G20    30.30F
RICHMOND       CLEAR     25   8  48 N9        30.27S WCI  15
RALEIGH        PTCLDY    28   8  43 CALM      30.30F

$$

ANZ530>537-310700-
MARINE OBSERVATIONS

STATION/POSITION TIME  TEMP    WIND        PRES
                       AIR SEA DIR/SP/G
                 (UTC) (F)     (DEG/KT/KT) (MB)
THOMAS PT LIGHT  0600   22 35  320/ 25/ 29 1024.4R
BALT KEY BRIDGE  0600   21     290/ 25/ 29 1023.5S
COVE POINT       0600   22     330/ 23/ 27 1023.2R
LEWISETTA        0600   24 35  320/ 16/ 21 1024.3R
SOLOMONS ISLAND  0600      37                N/A
PINEY POINT      0600          330/ 30/ 36   N/A

$$



USA.gov is the U.S. government's official web portal to all federal, state and local government web resources and services.